Location: Fauquembergues
(50.6005°N, 2.0987°E)
Time: 10:52:59
(UTC+00:00)

Cosmos 1190 Rocket - Pass Details

Date: 14 July 2020
Orbit: 756 x 781 km, 74.1° (Epoch: 05 August)

Event Time Altitude Azimuth Distance (km) Brightness Sun altitude
Exits shadow 02:06:37 17° 207° (SSW) 1,833 5.3 -12.4°
Maximum altitude 02:10:38 82° 294° (WNW) 781 4.0 -12.0°
Drops below altitude 10° 02:15:55 10° 23° (NNE) 2,324 8.0 -11.6°
Sets 02:18:19 0° 24° (NNE) 3,259 9.3 -11.4°
